Simultaneous Nadir Overpasses (SNOs) Predictions

Prediction of SNOs between GOES-17 and TERRA Satellite Orbit:

Table of predicted SNOs for the next 14.0 days since TLE Epoch: 6/6/2020
Index Date Time (GOES-17) GOES-17 Lat,Lon TERRA Lat,Lon Distance(km) Time Diff (sec)
1 06/06/2020 07:43:00 -0.02,-137.17 -0.14,-137.82 73.60 80
2 06/08/2020 07:28:09 -0.02,-137.16 0.47,-134.87 260.43 80
3 06/08/2020 19:49:25 0.01,-137.16 0.60,-140.03 325.48 80
4 06/10/2020 19:39:54 0.01,-137.14 0.03,-137.06 8.50 80
5 06/12/2020 19:27:45 0.01,-137.12 -0.64,-134.12 340.84 80
6 06/13/2020 07:49:09 -0.01,-137.10 -0.51,-139.31 251.46 80
7 06/15/2020 07:34:20 -0.01,-137.07 0.12,-136.36 80.75 80
8 06/17/2020 07:22:12 -0.01,-137.04 0.79,-133.42 412.02 80
9 06/17/2020 19:43:28 0.00,-137.04 0.32,-138.58 174.83 80
10 06/19/2020 19:34:00 -0.00,-136.99 -0.30,-135.63 155.09 80




NCC Satellite Simultaneous Nadir Overpasses (SNOs) Prediction Service
